Regional Weather Roundup
Issued by NWS New Orleans/Baton Rouge, LA

Home | Current Version | Previous Version | Graphics & Text | Print | Product List | Glossary On
Versions: 1 2 3 4 5 6 7 8 9 10 11 12 13 14 15 16 17 18 19 20 21 22 23 24 25 26 27 28 29 30 31 32 33 34 35 36 37 38 39 40 41 42 43 44 45 46 47 48 49 50
234
ASUS44 KLIX 261810
RWRLIX
NEW ORLEANS REGIONAL WEATHER ROUNDUP
NATIONAL WEATHER SERVICE NEW ORLEANS LA
1200 PM CST WED NOV 26 2014

NOTE: "FAIR" INDICATES FEW OR NO CLOUDS BELOW 12,000 FEET WITH NO
      SIGNIFICANT WEATHER AND/OR OBSTRUCTIONS TO VISIBILITY.
      SKY/WX - SKY CONDITION AND SIGNIFICANT WEATHER.
      TMP - AIR TEMPERATURE.     DP    - DEWPOINT TEMPERATURE.
      RH  - RELATIVE HUMIDITY.   PRES  - PRESSURE.
      HI  - HEAT INDEX.          WCI   - WIND CHILL INDEX.

*  THESE STATIONS ARE NOT NWS OR FAA STATIONS AND ARE NOT UNDER
   NWS QUALITY CONTROL.

LAZ038-040-048-061>063-065>067-069-261900-
SOUTHEAST LOUISIANA

CITY           SKY/WX    TMP DP  RH WIND       PRES   REMARKS
N.O. AUDUBON     N/A     64  36  35 MISG        N/A
6HR MIN TEMP:  38; 6HR MAX TEMP:  66;

N.O. INTL ARPT   N/A     63  35  35 S10       30.23F
6HR MIN TEMP:  38; 6HR MAX TEMP:  64;

N.O. LAKEFRONT   N/A     62  36  37 SW8       30.24F
6HR MIN TEMP:  41; 6HR MAX TEMP:  62;

N.O. DOWNTOWN*   N/A     63  30  29 S8G16     30.25S
6HR MIN TEMP:  45; 6HR MAX TEMP:  63;

SLIDELL          N/A     59  24  26 S8        30.23F
6HR MIN TEMP:  31; 6HR MAX TEMP:  60;

BATON ROUGE      N/A     68  37  32 W13       30.21F
6HR MIN TEMP:  31; 6HR MAX TEMP:  68;

BOOTHVILLE       N/A     59  29  31 VRB6      30.26F
6HR MIN TEMP:  48; 6HR MAX TEMP:  59;

BELLE CHASSE     N/A     65  29  25 W10       30.23F
6HR MIN TEMP:  33; 6HR MAX TEMP:  65;

BOGALUSA*        N/A     63  30  29 SW8G16    30.23F
6HR MIN TEMP:  30; 6HR MAX TEMP:  63;

NEW ROADS*       N/A     66  37  33 SW16      30.21F
6HR MIN TEMP:  32; 6HR MAX TEMP:  66;

GONZALES*        N/A     66  40  38 W6        30.22F
6HR MIN TEMP:  32; 6HR MAX TEMP:  66;

HAMMOND*         N/A     63  30  29 SW8       30.23F
HOUMA*         NOT AVBL
PORT FOURCHON* CLEAR     61  37  41 SW8       30.29F

$$

MSZ070-080>082-261900-
SOUTHERN MISSISSIPPI

CITY           SKY/WX    TMP DP  RH WIND       PRES   REMARKS
MCCOMB           N/A     61  35  37 SW10G20   30.19F
6HR MIN TEMP:  29; 6HR MAX TEMP:  61;

GULFPORT         N/A     56  28  34 S8        30.23F
6HR MIN TEMP:  33; 6HR MAX TEMP:  56;

BILOXI           N/A     55  25  32 S8        30.23F
6HR MIN TEMP:  38; 6HR MAX TEMP:  56;

PASCAGOULA       N/A     62  27  26 W8        30.22F
6HR MIN TEMP:  29; 6HR MAX TEMP:  62;

STENNIS ARPT*  SUNNY     61  25  25 SW6       30.23F

$$

COASTAL OBSERVATIONS
LAKE AND NEARSHORE STATIONS

STATION/POSITION TIME  TEMP    WIND        PRES    WAVE
                       AIR SEA DIR/SP/G            HT/PER
                 (UTC) (F)     (DEG/KT/KT) (MB)    (FT/S)
PASCAGOULA       1800   54     240/  7/ 10 1023.3
WAVELAND YACHT   1800   52     180/  8/ 11 1023.0
GRAND ISLE       1800   60 59  220/  4/  7 1025.0
SOUTHWEST PASS   1800   65                 1025.0
NEW CANAL        1800   60 54  220/  6/  8 1024.1
SHELL BEACH      1800   57 52  190/  9/ 12 1023.8

OFFSHORE STATIONS

STATION/POSITION TIME  TEMP    WIND        PRES    WAVE
                       AIR SEA DIR/SP/G            HT/PER
                 (UTC) (F)     (DEG/KT/KT) (MB)    (FT/S)
64 S DAUPHIN ISL 1657   59 71  310/  8/ 10 1025.2    2/ 5

$$




USA.gov is the U.S. government's official web portal to all federal, state and local government web resources and services.